Binghamton, NY

8:56 PM EST on November 17, 2019 (GMT -0500)
Binghamton Regional-Link

Weather History for KBGM - September, 2019

Change the Weather History Date:

Friday, September 27, 2019

  Actual Average Record
Temperature  
Mean Temperature 57 °F 55 °F  
Max Temperature 68 °F 64 °F 85 °F (2017)
Min Temperature 45 °F 46 °F 31 °F (1997)
Degree Days  
Heating Degree Days 8 10  
Month to date heating degree days 120 161  
Since 1 July heating degree days 157 224  
Cooling Degree Days 0 0  
Month to date cooling degree days 18 29  
Year to date cooling degree days 380 377  
Growing Degree Days 6 (Base 50)    
Moisture  
Dew Point 46 °F    
Average Humidity 69    
Maximum Humidity 93    
Minimum Humidity 45    
Precipitation  
Precipitation 0.00 in 0.12 in 3.50 in (1985)
Month to date precipitation 1.72 3.25  
Year to date precipitation 30.51 29.46  
Snow  
Snow 0.00 in 0.00 in 0.00 in (2002)
Month to date snowfall 0.0 0.0  
Since 1 July snowfall 0.0 0.0  
Since 1 September snowfall 0.0 0.0  
Snow Depth 0.00 in    
Sea Level Pressure  
Sea Level Pressure 30.08 in    
Wind  
Wind Speed 6 mph (SSW)    
Max Wind Speed 13 mph    
Max Gust Speed 17 mph    
Visibility 10 miles    
Events      
T = Trace of Precipitation, MM = Missing Value Source: NWS Daily Summary

Daily Weather History Graph

Daily Weather History Graph

Search for Another Location

Airport or City:

Astronomy

Sep. 27, 2019 Rise Set
Actual Time 6:56 AM EDT 6:52 PM EDT
Civil Twilight 6:28 AM EDT 7:20 PM EDT
Nautical Twilight 5:55 AM EDT 7:53 PM EDT
Astronomical Twilight 5:22 AM EDT 8:26 PM EDT
Moon 5:11 AM EDT (9/27) 6:44 PM EDT (9/27)
Length of Visible Light 12h 52m
Length of Day
11h 56m
Waning Crescent, 2% of the Moon is Illuminated
Sep 27
Waning Crescent
Sep 28
New
Oct 5
First Quarter
Oct 13
Full
Oct 21
Last Quarter

Hourly Weather History & Observations

Time (EDT) Temp. Dew Point Humidity Pressure Visibility Wind Dir Wind Speed Gust Speed Precip Events Conditions
12:53 AM 50.0 °F 45.0 °F 83% 30.02 in 10.0 mi Calm Calm - N/A   Clear
1:53 AM 51.1 °F 45.0 °F 80% 30.03 in 10.0 mi West 3.5 mph - N/A   Clear
2:53 AM 51.1 °F 45.0 °F 80% 30.03 in 10.0 mi West 3.5 mph - N/A   Clear
3:53 AM 48.9 °F 46.0 °F 90% 30.04 in 10.0 mi Calm Calm - N/A   Clear
4:53 AM 48.0 °F 45.0 °F 89% 30.04 in 10.0 mi Calm Calm - N/A   Clear
5:53 AM 50.0 °F 46.0 °F 86% 30.06 in 10.0 mi West 3.5 mph - N/A   Clear
6:53 AM 50.0 °F 45.0 °F 83% 30.08 in 10.0 mi NW 4.6 mph - N/A   Clear
7:53 AM 48.0 °F 46.0 °F 93% 30.10 in 10.0 mi Calm Calm - N/A   Clear
8:53 AM 51.1 °F 46.9 °F 86% 30.13 in 10.0 mi West 3.5 mph - N/A   Clear
9:53 AM 53.1 °F 48.0 °F 83% 30.16 in 10.0 mi SSW 6.9 mph - N/A   Clear
10:53 AM 57.0 °F 48.9 °F 74% 30.15 in 10.0 mi SSW 8.1 mph - N/A   Clear
11:53 AM 62.1 °F 46.0 °F 56% 30.15 in 10.0 mi SSW 11.5 mph - N/A   Clear
12:53 PM 64.0 °F 46.9 °F 54% 30.13 in 10.0 mi South 8.1 mph - N/A   Scattered Clouds
1:53 PM 66.0 °F 45.0 °F 47% 30.10 in 10.0 mi West 8.1 mph - N/A   Clear
2:53 PM 66.9 °F 45.0 °F 45% 30.08 in 10.0 mi SSE 8.1 mph - N/A   Clear
3:53 PM 66.9 °F 46.0 °F 47% 30.07 in 10.0 mi SSW 12.7 mph - N/A   Clear
4:53 PM 68.0 °F 46.0 °F 45% 30.07 in 10.0 mi South 10.4 mph - N/A   Clear
5:53 PM 66.9 °F 45.0 °F 45% 30.06 in 10.0 mi South 6.9 mph - N/A   Clear
6:53 PM 63.0 °F 48.0 °F 58% 30.06 in 10.0 mi South 6.9 mph - N/A   Clear
7:53 PM 61.0 °F 48.0 °F 62% 30.07 in 10.0 mi South 5.8 mph - N/A   Clear
8:53 PM 61.0 °F 48.0 °F 62% 30.06 in 10.0 mi South 10.4 mph - N/A   Clear
9:53 PM 61.0 °F 48.9 °F 64% 30.06 in 10.0 mi South 6.9 mph - N/A   Clear
10:53 PM 61.0 °F 48.9 °F 64% 30.07 in 10.0 mi South 9.2 mph - N/A   Clear
11:53 PM 60.1 °F 48.0 °F 64% 30.05 in 10.0 mi South 8.1 mph - N/A   Clear